{"data":{"norad_id":48771,"intl_designator":"2021-045E","name":"ONEWEB-0235","alt_names":[],"object_type":"PAYLOAD","status":"ACTIVE","operator":null,"country":"UK","launch_date":"2021-05-28","launch_site_code":"VOSTO","launch_vehicle":null,"mission":null,"orbit_class":"UNKNOWN","rcs_meters":null,"size_class":null,"mass_kg":null,"dimensions":null,"purposes":["comms"],"wikipedia_slug":null,"has_3d_model":false,"image_url":null,"decayed_at":null,"tle_current":{"epoch":"2026-09-20T04:47:56.736672Z","epoch_age_seconds":47929,"freshness":"FRESH","line1":"1 48771U 21045E   26263.19996223 -.00000103  00000+0 -30710-3 0  9998","line2":"2 48771  87.8991 240.2516 0002040  71.1409 288.9943 13.15549517256871","mean_motion":13.15549517,"eccentricity":0.000204,"inclination_deg":87.8991,"raan_deg":240.2516,"arg_perigee_deg":71.1409,"mean_anomaly_deg":288.9943,"bstar":-0.0003071,"rev_number":25687,"period_min":109.45996189363,"perigee_km":1200.2207526063,"apogee_km":1203.31335346,"semimajor_km":7579.9040530331,"source":"CELESTRAK","updated_at":"2026-09-20T09:00:44.615677Z"}}}